Flag for Switzerland Weather past 2 weeks in Worb, Bern, Switzerland

Now
48 °F

Sprinkles. Partly cloudy.


Feels Like: 48 °F
Forecast: 38 / 46 °F
Wind: 2 mph from North

Location: Bern / Belp

Current Time: Mar 2, 2015 at 12:47:25 AM

Latest Report: Mar 2, 2015 at 12:20 AM


Visibility: N/A

Pressure: 29.83 "Hg

Humidity: 82%

Dew point: 43 °F

Location of WorbLocation

Historic Weather in Worb — Graph

°F

Worb temperature yesterday

Maximum temperature yesterday: 50 °F (at 11:20 PM)
Minimum temperature yesterday: 30 °F (at 12:20 AM)
Average temperature yesterday: 39 °F

Past Weeks' High & Low Weather Summary

 TemperatureHumidityPressure
High52 °F (Feb 20, 2:20 PM)100% (Feb 14, 11:20 PM)30.60 "Hg (Feb 14, 11:20 PM)
Low21 °F (Feb 20, 7:20 AM)24% (Feb 20, 3:50 PM)29.56 "Hg (Feb 21, 9:20 AM)
Average34 °F86%30.02 "Hg
* Reported Feb 14 11:20 PM — Mar 1 11:50 PM, Worb, Weather by CustomWeather, © 2015

Note: Actual official high and low records may vary slightly from our data, if they occured in-between our weather recording intervals... More about our weather records

Advertising

Worb weather history for previous 24 hours

 ConditionsComfort  
Time TempWeatherWind HumidityBarometerVisibility
11:50 PM
Sun, Mar 1
50 °FSprinkles. Passing clouds.6 mph71%29.86 "HgN/A
11:20 PM50 °FPassing clouds.3 mph71%29.83 "HgN/A
10:50 PM45 °FPassing clouds.2 mph93%29.86 "HgN/A
10:20 PM43 °FLight rain. Partly cloudy.3 mph93%29.86 "HgN/A
9:50 PM45 °FPartly cloudy.2 mph87%29.89 "HgN/A
9:20 PM45 °FPassing clouds.6 mph87%29.86 "HgN/A
8:20 PM43 °FRain showers. Passing clouds.8 mph93%29.86 "Hg5 mi
7:50 PM43 °FPassing clouds.7 mph93%29.89 "HgN/A
7:20 PM43 °FSprinkles. Passing clouds.2 mph93%29.89 "HgN/A
6:50 PM43 °FPassing clouds.9 mph93%29.89 "HgN/A
6:20 PM45 °FSprinkles. Passing clouds.6 mph87%29.89 "HgN/A
5:50 PM45 °FPartly sunny.5 mph87%29.89 "HgN/A
5:20 PM45 °FPartly sunny.3 mph87%29.89 "HgN/A
4:50 PM46 °FScattered clouds.5 mph82%29.89 "HgN/A
4:20 PM46 °FBroken clouds.2 mph82%29.89 "HgN/A
3:50 PM46 °FPartly sunny.6 mph82%29.89 "HgN/A
3:20 PM46 °FPartly sunny.2 mph82%29.89 "HgN/A
2:50 PM45 °FPartly sunny.2 mph87%29.89 "HgN/A
2:20 PM45 °FPartly sunny.2 mph81%29.89 "HgN/A
1:50 PM45 °FOvercast.2 mph81%29.92 "HgN/A
1:20 PM45 °FSprinkles. Partly sunny.5 mph81%29.92 "HgN/A
12:50 PM43 °FBroken clouds.2 mph81%29.95 "Hg5 mi
12:20 PM41 °FBroken clouds.3 mph87%29.95 "HgN/A
11:50 AM41 °FDrizzle. Broken clouds.1 mph87%29.95 "Hg4 mi
11:20 AM41 °FPartly sunny.1 mph87%29.95 "Hg4 mi
10:50 AM37 °FSprinkles. Broken clouds.2 mph93%29.95 "Hg3 mi
10:20 AM36 °FBroken clouds.1 mph93%29.95 "Hg3 mi
9:50 AM36 °FSprinkles. Broken clouds.2 mph93%29.98 "Hg3 mi
9:20 AM34 °FSnow flurries. Broken clouds.2 mph100%29.98 "Hg2 mi
8:50 AM32 °FIce fog.No wind100%29.98 "Hg2 mi
8:20 AM32 °FIce fog.No wind100%29.95 "Hg2 mi
7:50 AM32 °FLight snow. Partly sunny.1 mph100%29.95 "Hg2 mi
7:20 AM32 °FLight snow. Partly sunny.2 mph100%29.95 "Hg2 mi
6:50 AM32 °FSnow. Overcast.3 mph100%29.95 "Hg1 mi
6:20 AM32 °FSnow showers. Dense fog.3 mph100%29.95 "Hg1 mi
5:50 AM32 °FSnow. Passing clouds.2 mph93%29.98 "Hg1 mi
5:20 AM32 °FPassing clouds.3 mph93%29.98 "HgN/A
4:50 AM32 °FPassing clouds.3 mph93%29.98 "HgN/A
4:20 AM32 °FOvercast.7 mph93%29.95 "HgN/A
3:50 AM32 °FPassing clouds.No wind93%29.98 "Hg6 mi
3:20 AM30 °FPassing clouds.2 mph100%29.95 "Hg6 mi
2:50 AM30 °FPassing clouds.3 mph100%29.98 "HgN/A
2:20 AM30 °FClear.6 mph93%29.98 "HgN/A
1:50 AM30 °FChilly.3 mph93%29.98 "HgN/A
1:20 AM30 °FChilly.3 mph93%30.01 "HgN/A
12:50 AM30 °FClear.6 mph93%30.01 "Hg10 mi
12:20 AM30 °FClear.2 mph93%30.01 "HgN/A
Weather by CustomWeather, © 2015

See weather overviewHow to use our weather pages